User: anonymous   Login
Location: Unspecified
(0.0000°N, 0.0000°E)
Time: 11:42:02
(UTC+00:00)
Language:

KOMPSAT-2 - Orbit

View from above orbital plane
View from above orbital plane
View from above satellite
View from above satellite

Ground track
Ground track

The orbit data is extracted from the following two-line orbital elements,

1 29268U 06031A   18289.20202288  .00000028  00000-0  14821-4 0  9999
2 29268  98.0518 182.7632 0016742 279.6315  80.3004 14.62382886652020
Epoch (UTC): 16 October 2018 04:50:54
Eccentricity: 0.0016742
inclination: 98.0518°
perigee height: 673 km
apogee height: 697 km
right ascension of ascending node: 182.7632°
argument of perigee: 279.6315°
revolutions per day: 14.62382886
mean anomaly at epoch: 80.3004°
orbit number at epoch: 65202

The dashed part of the orbit path shows where the satellite is in the earth's shadow,  

DLR